Harvey, ND

10:17 AM CST on November 21, 2017 (GMT -0600)
Harvey

Weather History for K5H4 - January, 2014

Change the Weather History Date:

Friday, January 10, 2014

  Actual Average (KRUG) Record (KRUG)
Temperature  
Mean Temperature 26 °F -  
Max Temperature 32 °F 8 °F 52 °F (1990)
Min Temperature 19 °F -10 °F -40 °F (1989)
Degree Days  
Heating Degree Days 40    
Moisture  
Dew Point 23 °F    
Average Humidity 87    
Maximum Humidity 100    
Minimum Humidity 69    
Precipitation  
Precipitation 0.00 in - - ()
Sea Level Pressure  
Sea Level Pressure 29.45 in    
Wind  
Wind Speed 10 mph (West)    
Max Wind Speed 22 mph    
Max Gust Speed 25 mph    
Visibility 10 miles    
Events      
Averages and records for this station are not official NWS values.
T = Trace of Precipitation, MM = Missing Value Source: NWS Daily Summary

Daily Weather History Graph

Daily Weather History Graph

Search for Another Location

Airport or City:

Trip Planner

Search our weather history database for the weather conditions in past years. The results will help you decide how hot, cold, wet, or windy it might be!

Date:

Astronomy

Jan. 10, 2014 Rise Set
Actual Time 8:26 AM CST 5:08 PM CST
Civil Twilight 7:51 AM CST 5:43 PM CST
Nautical Twilight 7:12 AM CST 6:22 PM CST
Astronomical Twilight 6:35 AM CST 6:59 PM CST
Moon 1:19 PM CST (1/10) 3:28 AM CST (1/10)
Length of Visible Light 9h 52m
Length of Day
8h 41m
Waxing Gibbous, 75% of the Moon is Illuminated
Jan 10
Waxing Gibbous
Jan 15
Full
Jan 23
Last Quarter
Jan 30
New
Feb 6
First Quarter

Hourly Weather History & Observations

Time (CST) Temp. Windchill Dew Point Humidity Pressure Visibility Wind Dir Wind Speed Gust Speed Precip Events Conditions
12:15 AM 21.2 °F 11.7 °F 17.6 °F 86% 29.50 in 10.0 mi SW 8.1 mph - N/A   Scattered Clouds
12:35 AM 21.2 °F 16.4 °F 17.6 °F 86% 29.50 in 10.0 mi West 3.5 mph - N/A   Partly Cloudy
12:55 AM 19.4 °F 12.8 °F 17.6 °F 93% 29.49 in 10.0 mi SW 4.6 mph - N/A   Clear
1:15 AM 19.4 °F 11.5 °F 17.6 °F 93% 29.48 in 10.0 mi SW 5.8 mph - N/A   Clear
1:35 AM 21.2 °F 9.5 °F 19.4 °F 93% 29.47 in 10.0 mi SW 11.5 mph - N/A   Clear
1:55 AM 23.0 °F 12.4 °F 19.4 °F 86% 29.47 in 10.0 mi SW 10.4 mph - N/A   Scattered Clouds
2:15 AM 23.0 °F 12.4 °F 19.4 °F 86% 29.47 in 10.0 mi SW 10.4 mph - N/A   Scattered Clouds
2:35 AM 23.0 °F 18.4 °F 19.4 °F 86% 29.47 in 10.0 mi West 3.5 mph - N/A   Clear
2:55 AM 24.8 °F 17.9 °F 21.2 °F 86% 29.47 in 10.0 mi SW 5.8 mph - N/A   Clear
3:15 AM 24.8 °F 16.1 °F 23.0 °F 93% 29.46 in 10.0 mi SW 8.1 mph - N/A   Clear
3:35 AM 24.8 °F 15.3 °F 23.0 °F 93% 29.46 in 10.0 mi SW 9.2 mph - N/A   Partly Cloudy
3:55 AM 24.8 °F 15.3 °F 23.0 °F 93% 29.45 in 10.0 mi WSW 9.2 mph - N/A   Scattered Clouds
4:15 AM 26.6 °F 16.2 °F 23.0 °F 86% 29.45 in 10.0 mi WSW 11.5 mph - N/A   Mostly Cloudy
4:35 AM 26.6 °F 18.2 °F 23.0 °F 86% 29.45 in 10.0 mi WSW 8.1 mph - N/A   Overcast
4:55 AM 26.6 °F 16.8 °F 24.8 °F 93% 29.45 in 10.0 mi WSW 10.4 mph - N/A   Mostly Cloudy
5:15 AM 26.6 °F 16.8 °F 24.8 °F 93% 29.44 in 10.0 mi WSW 10.4 mph - N/A   Mostly Cloudy
5:35 AM 26.6 °F 16.2 °F 24.8 °F 93% 29.44 in 10.0 mi SW 11.5 mph - N/A   Overcast
5:55 AM 26.6 °F 19.1 °F 24.8 °F 93% 29.44 in 10.0 mi SW 6.9 mph - N/A   Mostly Cloudy
6:15 AM 24.8 °F 17.9 °F 23.0 °F 93% 29.44 in 10.0 mi SW 5.8 mph - N/A   Partly Cloudy
6:35 AM 24.8 °F 14.6 °F 23.0 °F 93% 29.43 in 10.0 mi SW 10.4 mph - N/A   Scattered Clouds
6:55 AM 24.8 °F 14.0 °F 24.8 °F 100% 29.43 in 10.0 mi WSW 11.5 mph - N/A   Partly Cloudy
7:15 AM 26.6 °F 16.2 °F 24.8 °F 93% 29.43 in 10.0 mi SW 11.5 mph - N/A   Clear
7:35 AM 24.8 °F 13.4 °F 23.0 °F 93% 29.43 in 10.0 mi WSW 12.7 mph - N/A   Clear
7:55 AM 23.0 °F 12.4 °F 23.0 °F 100% 29.43 in 10.0 mi WSW 10.4 mph - N/A   Clear
8:15 AM 23.0 °F 12.4 °F 21.2 °F 93% 29.44 in 10.0 mi WSW 10.4 mph - N/A   Clear
8:35 AM 23.0 °F 11.7 °F 21.2 °F 93% 29.44 in 10.0 mi West 11.5 mph - N/A   Clear
8:55 AM 24.8 °F 14.0 °F 19.4 °F 80% 29.44 in 10.0 mi WSW 11.5 mph - N/A   Clear
9:15 AM 23.0 °F 13.1 °F 19.4 °F 86% 29.45 in 10.0 mi West 9.2 mph - N/A   Clear
9:35 AM 23.0 °F 10.6 °F 19.4 °F 86% 29.45 in 10.0 mi WSW 13.8 mph - N/A   Clear
9:55 AM 24.8 °F 12.9 °F 19.4 °F 80% 29.45 in 10.0 mi WSW 13.8 mph - N/A   Clear
10:15 AM 26.6 °F 16.2 °F 21.2 °F 80% 29.45 in 10.0 mi West 11.5 mph - N/A   Clear
10:35 AM 26.6 °F 15.7 °F 21.2 °F 80% 29.46 in 10.0 mi WSW 12.7 mph - N/A   Clear
10:55 AM 28.4 °F 18.0 °F 23.0 °F 80% 29.45 in 10.0 mi West 12.7 mph - N/A   Clear
11:15 AM 28.4 °F 19.7 °F 23.0 °F 80% 29.45 in 10.0 mi West 9.2 mph - N/A   Clear
11:35 AM 30.2 °F 21.9 °F 23.0 °F 75% 29.44 in 10.0 mi West 9.2 mph - N/A   Clear
11:55 AM 30.2 °F 19.3 °F 23.0 °F 75% 29.44 in 10.0 mi WSW 15.0 mph - N/A   Clear
12:35 PM 30.2 °F 19.3 °F 23.0 °F 75% 29.42 in 10.0 mi West 15.0 mph - N/A   Clear
12:55 PM 32.0 °F 22.1 °F 23.0 °F 69% 29.42 in 10.0 mi West 13.8 mph - N/A   Clear
1:15 PM 32.0 °F 21.6 °F 23.0 °F 69% 29.42 in 10.0 mi West 15.0 mph - N/A   Clear
1:35 PM 32.0 °F 21.6 °F 23.0 °F 69% 29.41 in 10.0 mi West 15.0 mph 20.7 mph N/A   Clear
1:55 PM 32.0 °F 21.6 °F 23.0 °F 69% 29.40 in 10.0 mi West 15.0 mph 20.7 mph N/A   Clear
2:15 PM 32.0 °F 22.1 °F 23.0 °F 69% 29.40 in 10.0 mi West 13.8 mph - N/A   Clear
2:35 PM 32.0 °F 21.6 °F 24.8 °F 75% 29.40 in 10.0 mi West 15.0 mph 19.6 mph N/A   Clear
2:55 PM 32.0 °F 22.1 °F 23.0 °F 69% 29.40 in 10.0 mi West 13.8 mph - N/A   Clear
3:15 PM 32.0 °F 23.0 °F 23.0 °F 69% 29.40 in 10.0 mi West 11.5 mph - N/A   Clear
3:35 PM 32.0 °F 22.5 °F 24.8 °F 75% 29.40 in 10.0 mi West 12.7 mph - N/A   Mostly Cloudy
3:55 PM 32.0 °F 22.1 °F 23.0 °F 69% 29.41 in 10.0 mi West 13.8 mph - N/A   Scattered Clouds
4:15 PM 32.0 °F 23.0 °F 23.0 °F 69% 29.42 in 10.0 mi WNW 11.5 mph - N/A   Clear
4:35 PM 30.2 °F 21.3 °F 24.8 °F 80% 29.43 in 10.0 mi WNW 10.4 mph - N/A   Scattered Clouds
4:55 PM 30.2 °F 21.3 °F 24.8 °F 80% 29.43 in 10.0 mi WNW 10.4 mph - N/A   Mostly Cloudy
5:15 PM 28.4 °F 19.7 °F 24.8 °F 86% 29.43 in 10.0 mi WNW 9.2 mph - N/A   Overcast
5:35 PM 28.4 °F 18.5 °F 26.6 °F 93% 29.43 in 10.0 mi NW 11.5 mph - N/A   Overcast
5:55 PM 28.4 °F 19.1 °F 24.8 °F 86% 29.44 in 10.0 mi WNW 10.4 mph - N/A   Overcast
6:15 PM 28.4 °F 19.1 °F 24.8 °F 86% 29.44 in 10.0 mi West 10.4 mph - N/A   Overcast
6:35 PM 28.4 °F 20.4 °F 24.8 °F 86% 29.44 in 10.0 mi West 8.1 mph - N/A   Overcast
6:55 PM 26.6 °F 17.5 °F 24.8 °F 93% 29.44 in 10.0 mi WSW 9.2 mph - N/A   Overcast
7:15 PM 26.6 °F 18.2 °F 24.8 °F 93% 29.44 in 10.0 mi West 8.1 mph - N/A   Overcast
7:35 PM 28.4 °F 18.5 °F 24.8 °F 86% 29.44 in 10.0 mi WNW 11.5 mph - N/A   Overcast
7:55 PM 28.4 °F 16.2 °F 24.8 °F 86% 29.46 in 10.0 mi WNW 17.3 mph 23.0 mph N/A   Overcast
8:15 PM 26.6 °F 13.4 °F 26.6 °F 100% 29.46 in 10.0 mi NW 18.4 mph 23.0 mph N/A   Overcast
8:35 PM 26.6 °F 13.8 °F 24.8 °F 93% 29.47 in 9.0 mi NW 17.3 mph 25.3 mph N/A   Overcast
8:55 PM 24.8 °F 11.1 °F 24.8 °F 100% 29.48 in 7.0 mi NW 18.4 mph 24.2 mph N/A   Overcast
9:15 PM 24.8 °F 10.0 °F 24.8 °F 100% 29.49 in 9.0 mi NW 21.9 mph - N/A   Overcast
9:35 PM 24.8 °F 11.1 °F 24.8 °F 100% 29.50 in 8.0 mi NW 18.4 mph - N/A   Overcast
9:55 PM 24.8 °F 11.9 °F 24.8 °F 100% 29.50 in 8.0 mi NW 16.1 mph - N/A   Overcast
10:15 PM 24.8 °F 11.5 °F 24.8 °F 100% 29.51 in 7.0 mi NW 17.3 mph - N/A   Overcast
10:35 PM 24.8 °F 11.9 °F 24.8 °F 100% 29.52 in 8.0 mi WNW 16.1 mph 21.9 mph N/A   Overcast
10:55 PM 24.8 °F 11.9 °F 24.8 °F 100% 29.53 in 7.0 mi WNW 16.1 mph 24.2 mph N/A   Overcast
11:15 PM 23.0 °F 11.1 °F 23.0 °F 100% 29.54 in 8.0 mi WNW 12.7 mph - N/A   Overcast
11:35 PM 24.8 °F 12.9 °F 24.8 °F 100% 29.54 in 7.0 mi NW 13.8 mph - N/A   Overcast
11:55 PM 24.8 °F 12.4 °F 24.8 °F 100% 29.55 in 7.0 mi NW 15.0 mph 19.6 mph N/A   Overcast